Wind_Speed
78 79 80 81 80 80 80 80 80 79 79 79 79 79 79 79 80 80 79 78 77 76 76 76 76 76 74 72 72 71 70 68 66 65 66 68 69 70 71 70 70 69 70 72 73 71 70 68 67 67 66 66 65 63 62 63 62 61 60 58 57 58 59 58 57 57 55 53 51 49 47 46 43 39 36 32 28 24 22 20 20 19 18 18 18
79 80 81 82 82 82 81 81 81 81 80 80 80 80 80 80 81 81 80 79 78 77 76 75 74 73 71 70 70 70 68 64 63 64 66 68 69 69 70 70 71 71 71 72 72 70 69 68 68 68 68 67 66 63 62 63 61 60 58 57 58 60 59 58 56 55 53 51 49 47 46 44 40 37 33 30 27 23 21 20 19 19 19 19 18
80 81 82 82 82 82 82 82 82 82 81 80 80 80 79 79 80 80 79 79 77 76 74 72 72 71 70 71 71 70 65 61 61 64 67 68 68 68 70 71 71 70 70 71 70 69 70 70 70 71 70 68 66 64 63 62 60 58 57 58 60 60 58 56 55 53 51 49 46 44 44 41 38 34 32 30 26 22 20 19 19 19 19 19 18
82 82 83 82 82 82 83 83 83 83 82 81 81 80 79 78 78 78 78 77 76 74 73 73 73 73 72 73 72 69 64 63 65 67 68 68 68 69 71 72 70 70 72 72 71 71 72 72 72 71 68 67 66 66 64 61 58 57 58 60 60 58 56 54 52 50 48 45 42 42 41 38 36 33 31 29 25 22 20 20 19 20 20 19 18
83 83 83 83 83 83 83 83 84 84 83 82 81 80 79 78 78 78 77 77 76 75 74 74 73 73 72 72 70 66 66 67 69 70 69 69 69 70 72 72 71 72 73 72 72 73 73 72 70 68 67 68 70 68 64 59 57 58 59 59 58 55 53 51 48 46 44 41 40 39 38 36 34 31 30 28 25 22 21 20 20 20 20 19 19
82 83 83 84 84 84 84 84 84 84 84 83 82 82 81 80 79 78 78 77 77 76 75 74 74 74 73 72 68 64 66 70 71 72 71 71 70 71 72 72 73 73 73 73 73 73 72 71 68 67 69 72 70 65 60 57 57 57 57 56 54 52 49 47 45 43 41 39 37 35 35 33 32 30 29 27 25 23 22 21 21 21 20 20 19
83 83 83 84 85 85 84 84 85 85 84 84 83 83 82 81 80 80 78 78 77 76 75 75 76 76 75 74 70 68 70 73 74 74 74 73 72 72 72 73 73 74 74 74 73 73 73 71 68 69 71 70 66 61 58 56 56 55 53 52 50 48 46 44 41 40 38 36 33 32 32 31 30 29 27 27 26 24 23 22 22 21 21 21 19
84 84 84 85 85 85 84 85 86 86 85 85 84 84 83 83 82 81 80 79 79 78 77 77 78 78 77 76 74 74 75 77 77 77 76 75 73 72 73 73 74 74 74 73 73 73 71 69 68 68 65 63 61 59 57 56 55 52 49 49 48 47 44 40 38 38 36 33 31 29 29 29 29 28 27 27 26 26 24 23 23 22 22 21 20
85 84 84 85 86 85 85 86 86 86 86 86 85 85 85 85 84 83 82 81 81 81 80 80 80 80 80 79 77 78 80 81 80 79 77 75 74 74 74 73 74 74 73 72 72 69 68 67 63 59 57 56 56 56 56 55 52 48 48 49 48 44 39 36 37 36 33 30 28 27 27 27 28 28 28 27 27 27 25 24 23 23 23 21 21
86 86 86 86 86 86 86 86 87 87 87 87 86 86 86 85 85 84 83 83 82 82 82 82 82 83 83 82 81 81 82 83 81 79 77 75 75 74 74 73 73 72 71 71 69 67 65 61 55 53 53 53 54 54 54 53 49 47 49 48 44 40 36 34 35 33 30 28 26 26 26 26 27 28 28 28 28 27 26 25 24 25 23 22 22
87 87 87 87 87 87 87 87 88 88 88 87 87 87 87 86 85 84 84 84 84 83 83 83 84 84 84 84 84 83 83 82 80 78 76 75 75 74 72 71 70 70 69 68 66 64 59 53 51 52 53 53 54 54 52 49 47 48 47 44 40 37 34 33 32 30 28 26 25 25 26 26 27 29 30 29 29 28 27 27 26 26 24 23 24
88 88 88 88 88 88 87 87 88 88 88 88 88 88 87 86 85 85 84 84 84 83 84 84 84 84 83 83 84 84 82 80 78 76 75 74 73 71 70 69 68 67 66 64 62 58 52 50 52 52 53 54 54 52 48 46 47 47 45 40 37 36 34 31 28 27 26 25 25 26 27 27 28 30 31 31 30 29 28 28 27 27 26 25 24
90 90 89 88 89 89 88 88 89 89 89 89 90 90 88 87 86 85 84 83 83 82 82 82 82 82 82 82 82 81 79 76 74 74 73 72 70 67 66 66 64 62 60 58 56 52 50 52 53 52 52 52 49 46 43 43 44 44 42 38 36 36 34 29 25 25 25 26 26 27 28 29 30 31 32 32 31 30 29 29 29 28 27 26 23
91 89 89 90 90 89 88 88 89 89 90 90 91 91 89 88 86 85 84 84 82 81 80 80 79 79 78 78 76 75 73 71 70 69 68 66 64 63 62 60 56 54 54 52 51 52 54 55 54 51 48 46 43 40 39 39 40 40 39 37 36 36 31 26 24 24 24 26 27 28 28 29 30 30 31 32 31 31 30 30 30 29 29 27 23
90 88 87 85 83 84 85 87 89 90 91 92 92 91 90 89 87 85 84 83 80 79 77 76 75 73 72 70 68 67 66 65 64 62 61 60 59 58 56 52 51 51 51 51 52 54 55 53 51 47 43 42 40 38 38 38 38 38 37 36 35 33 28 24 24 24 24 27 28 27 27 27 27 29 30 32 32 31 31 31 31 31 30 28 24
91 89 84 80 82 86 88 89 91 92 93 93 93 92 90 89 88 86 84 81 77 75 72 71 69 67 64 62 62 61 60 60 59 57 56 56 56 54 50 49 51 52 52 51 52 52 50 48 47 43 40 40 40 37 37 36 36 35 35 35 33 29 26 24 25 24 24 26 27 26 26 28 28 28 29 31 32 32 32 32 32 32 32 30 26
92 90 86 81 82 86 90 93 94 95 95 95 94 92 91 91 89 86 82 77 73 70 67 64 62 60 58 57 56 54 54 54 53 52 52 54 54 51 49 51 51 50 49 48 48 48 47 45 43 42 41 40 40 38 34 33 32 32 33 33 29 27 26 25 26 24 24 25 26 27 29 28 28 28 29 31 33 33 33 32 33 33 34 32 29
91 90 88 87 87 89 95 98 97 96 96 95 94 92 92 90 87 82 77 72 68 64 61 57 54 52 51 49 47 46 45 45 45 45 47 49 48 47 47 47 45 44 45 46 46 45 43 41 41 41 42 42 41 38 33 31 30 30 32 32 28 27 27 27 26 24 24 25 26 29 29 27 27 28 29 31 33 34 34 33 34 34 35 34 31
92 91 91 93 95 97 99 99 98 98 96 94 93 92 89 84 79 75 70 65 61 58 56 52 49 48 48 44 42 42 42 41 41 42 44 44 42 42 40 38 39 42 44 44 43 41 40 40 41 42 43 45 44 40 35 33 33 32 33 32 30 29 29 28 26 25 26 26 27 29 29 29 30 30 30 31 33 35 35 34 35 35 36 36 32
94 94 93 95 97 97 98 99 100 98 95 93 91 87 83 78 72 65 61 59 58 57 55 51 49 49 47 43 41 43 43 42 42 43 43 42 41 40 37 38 41 43 43 43 43 42 43 44 44 45 46 47 46 42 39 38 35 33 33 34 34 34 31 28 27 27 27 28 28 30 31 32 33 33 32 32 34 35 35 35 35 35 36 37 35
94 94 96 96 97 98 98 97 94 90 87 84 81 78 75 71 64 58 57 58 59 57 53 51 50 49 44 41 41 43 45 45 45 45 44 43 44 44 43 44 42 42 43 45 47 50 52 50 48 48 47 46 44 43 42 40 35 33 35 37 38 36 33 29 28 28 29 30 31 32 34 35 35 35 34 33 34 35 36 36 36 36 37 38 38
93 94 96 95 92 88 82 77 75 74 72 69 68 70 69 64 58 57 58 58 57 53 50 51 49 46 44 43 43 43 45 47 49 50 49 50 50 49 48 44 42 44 47 50 53 56 55 51 50 49 47 45 43 43 42 38 35 35 37 40 39 36 32 30 29 29 31 32 33 35 36 37 37 36 35 33 33 34 36 37 37 37 38 39 39
88 85 84 82 78 73 70 71 73 72 66 65 68 68 66 61 57 58 59 57 55 52 50 50 48 48 48 48 46 45 46 48 52 53 55 56 53 51 50 44 45 49 50 53 56 57 54 51 51 51 47 44 44 44 41 37 37 38 38 39 38 35 33 32 30 30 30 33 36 38 39 38 37 36 35 34 33 34 36 37 38 38 39 40 40
82 79 78 75 78 80 80 80 78 75 68 63 65 68 67 62 58 58 59 57 55 53 50 49 50 51 51 51 50 47 45 47 51 52 55 56 52 52 50 48 51 51 52 57 58 57 54 53 53 51 47 44 45 44 40 38 39 39 38 38 36 35 34 34 33 33 33 35 37 38 39 38 38 37 36 34 33 33 35 37 39 39 40 41 42
79 81 81 79 84 81 72 70 70 71 67 58 59 68 67 59 57 57 57 55 52 49 46 48 51 51 51 56 57 52 49 50 51 52 53 52 50 51 51 53 54 54 58 61 60 58 57 55 54 52 48 46 47 44 40 40 40 39 39 38 37 36 36 37 38 38 37 36 35 35 36 38 39 38 37 36 33 32 34 36 39 40 41 42 43
75 76 75 75 73 61 55 63 68 66 62 57 59 64 61 55 56 56 55 51 47 46 47 49 52 53 58 63 61 57 55 54 54 51 49 48 48 50 53 56 58 62 65 63 61 60 60 57 53 51 49 48 46 43 42 42 40 40 40 39 38 38 38 39 42 42 40 37 35 33 34 36 38 39 38 38 35 33 33 36 38 41 42 43 44
67 66 64 64 61 59 63 67 65 60 58 58 58 59 58 58 60 60 58 53 50 52 54 54 57 64 68 66 61 59 57 55 53 48 46 48 49 53 57 61 64 67 66 63 62 62 62 59 53 49 48 47 46 45 43 41 40 41 41 41 40 40 41 41 42 44 43 40 36 34 34 34 36 39 39 40 39 37 35 37 39 41 43 44 45
58 56 53 55 60 66 70 66 59 56 54 55 55 56 57 59 61 63 61 56 56 58 59 61 66 73 72 66 62 62 61 57 52 49 48 50 53 58 63 67 69 68 66 64 64 64 62 58 52 49 48 48 48 47 44 42 42 42 43 43 43 43 44 42 42 44 45 42 38 36 36 34 33 37 40 40 42 40 38 38 39 41 43 44 45
50 48 48 54 63 67 66 62 58 55 55 54 53 54 54 54 56 57 57 57 59 61 64 68 71 73 71 66 62 62 63 59 55 53 52 54 60 65 69 71 70 68 66 66 65 63 60 56 52 49 50 50 49 48 47 45 44 43 45 45 45 46 45 43 44 46 46 44 40 39 39 36 33 35 39 41 43 42 39 38 39 41 43 45 46
35 38 46 51 55 58 58 56 56 57 59 57 56 55 52 51 53 55 57 60 63 67 71 73 72 72 69 64 62 62 62 62 61 61 62 65 68 71 71 71 70 69 67 65 64 60 57 53 51 51 51 50 49 47 48 47 44 44 46 46 46 47 45 45 46 47 45 43 41 40 40 37 33 34 38 42 43 42 39 38 39 41 42 44 46
19 27 43 50 50 52 53 51 51 55 58 56 53 53 53 57 60 63 65 67 70 72 72 72 70 68 65 62 61 62 63 65 66 68 70 72 72 71 70 69 67 66 62 58 57 55 53 51 51 51 51 48 46 45 47 46 43 44 46 46 45 45 46 47 48 46 43 42 41 40 39 36 33 33 37 41 42 40 38 36 38 40 41 43 46
23 28 34 43 50 53 55 52 48 50 54 55 54 57 62 66 68 70 71 72 71 69 66 64 61 59 58 57 58 59 61 63 64 65 67 67 68 67 66 65 62 59 55 51 50 50 51 51 51 51 50 48 45 45 47 46 44 44 46 45 44 46 48 48 47 45 42 41 41 40 38 35 33 32 37 40 40 38 36 35 36 38 40 42 44
39 39 36 32 38 48 51 49 46 47 50 53 54 57 60 61 62 63 64 64 61 58 56 53 52 51 52 53 54 54 55 56 56 57 59 60 61 60 60 59 58 55 52 50 48 49 51 52 52 52 51 49 46 45 48 48 47 46 47 47 47 50 50 48 46 42 40 41 42 42 39 36 33 33 36 39 39 36 34 34 36 38 39 41 43
45 45 43 34 28 41 47 45 42 42 46 49 49 48 48 50 53 55 55 54 53 52 51 49 48 47 46 47 47 46 47 48 49 50 52 53 53 53 53 54 55 54 52 51 51 52 54 54 54 54 54 53 52 50 50 52 52 51 52 53 52 50 47 45 43 40 40 42 43 43 40 38 36 33 35 38 38 36 34 35 38 40 42 42 44
46 46 46 41 31 34 41 40 37 37 39 41 41 40 43 48 51 51 51 51 51 49 47 44 41 39 38 38 38 38 39 40 42 43 44 45 46 46 45 47 50 52 53 52 52 53 54 55 56 56 57 58 56 52 52 54 55 55 54 52 49 45 42 41 40 40 42 44 45 44 41 41 38 34 35 36 37 35 34 36 39 41 43 44 46
48 47 48 49 43 38 38 38 36 35 35 35 37 41 46 50 50 49 49 49 47 42 39 36 35 33 32 31 32 32 33 34 35 37 38 38 40 39 34 37 45 48 51 52 51 51 53 54 55 55 57 56 51 48 51 53 52 51 48 44 41 39 39 40 41 43 45 46 46 45 43 42 39 35 35 36 36 35 34 37 39 40 42 45 47
49 48 49 53 51 45 42 41 38 37 37 39 43 47 50 50 48 47 47 45 39 35 33 32 31 31 30 30 30 31 31 31 32 33 34 34 36 34 25 28 41 46 47 50 51 52 52 53 54 53 53 50 46 46 50 52 49 47 45 42 41 41 41 42 44 45 46 47 46 44 43 41 38 35 35 36 36 35 35 36 39 40 41 43 46
51 50 49 53 54 51 49 48 45 43 43 45 48 51 50 47 45 44 42 39 35 33 32 30 30 30 31 32 32 33 33 32 33 32 33 32 33 33 30 33 41 46 48 49 50 50 49 50 50 51 49 47 46 47 49 51 50 47 45 43 44 45 44 43 43 42 44 46 45 43 42 39 37 36 36 37 36 35 35 36 38 39 39 41 44
53 52 50 51 52 52 51 51 50 50 50 50 52 51 48 43 41 40 38 36 35 34 33 32 32 32 33 34 33 34 35 34 34 33 33 33 30 29 32 36 41 47 51 51 50 49 48 47 47 48 48 48 48 49 51 51 50 47 45 44 45 45 44 43 42 41 43 44 43 41 40 39 38 36 37 38 35 34 34 36 37 38 38 40 43
51 53 52 51 50 50 50 50 51 52 53 52 50 45 41 38 37 37 36 36 37 36 36 36 35 36 37 36 36 36 36 36 35 33 33 33 30 28 30 35 41 49 53 53 51 50 48 49 50 50 50 51 51 52 52 52 52 49 47 46 46 46 47 46 45 45 46 45 42 41 40 39 38 37 38 39 36 33 34 35 37 37 38 39 43
46 49 51 52 51 51 52 52 52 53 52 48 42 36 34 35 36 36 37 38 38 39 39 39 39 40 41 41 39 37 37 37 36 35 33 32 31 30 30 34 40 47 51 53 55 54 51 50 52 53 54 55 55 55 56 56 57 55 52 50 50 51 52 51 51 48 47 45 41 40 40 39 38 38 39 39 36 34 33 34 36 36 37 40 43
43 45 48 50 52 53 55 56 56 56 52 46 41 39 38 38 39 39 41 41 41 43 44 44 44 44 45 45 42 39 38 37 36 36 35 34 33 32 32 33 35 38 41 45 49 53 55 55 56 56 57 59 59 60 59 58 57 54 53 52 52 55 55 54 53 49 46 45 43 41 40 39 39 38 39 38 35 34 34 34 35 36 37 41 44
44 44 46 48 51 52 54 55 56 56 53 50 48 48 48 47 46 46 46 46 45 46 47 48 49 49 48 45 43 41 40 39 37 36 36 35 34 34 34 34 34 34 34 36 38 43 48 53 56 58 58 58 59 59 56 52 48 44 46 50 50 51 52 51 50 48 45 45 43 42 40 40 39 39 39 38 35 35 35 36 37 39 40 42 45
43 44 45 46 47 47 48 48 50 51 52 53 55 55 54 54 53 52 51 50 50 50 51 52 52 50 48 46 45 45 44 42 39 37 35 35 35 35 34 34 33 32 32 32 33 35 37 41 44 46 47 47 48 50 49 47 42 39 41 46 48 47 45 45 45 45 45 44 43 41 40 40 40 40 40 38 36 35 35 36 38 41 43 43 43
42 43 43 43 43 43 43 43 44 46 47 50 53 54 54 54 54 54 54 53 52 52 53 52 51 49 47 47 48 48 48 45 41 37 34 33 34 35 35 34 33 32 31 31 30 31 32 33 34 35 36 37 37 38 39 39 38 38 41 44 47 46 43 43 43 43 43 42 41 40 39 39 40 42 42 39 37 35 35 36 37 39 41 42 42
44 43 41 40 41 41 42 43 44 46 47 48 48 48 48 48 49 50 50 51 51 51 50 50 49 48 47 48 48 49 47 45 42 38 35 33 33 34 35 34 34 33 31 31 30 30 30 30 31 31 32 32 32 32 33 33 32 34 36 38 40 41 41 40 41 42 42 41 40 40 39 38 39 42 43 40 38 36 35 35 36 38 39 40 41
49 47 44 42 41 42 42 44 45 47 48 49 48 48 48 47 47 47 47 48 48 49 50 50 49 49 49 49 49 48 46 43 40 37 35 34 33 33 34 34 35 34 32 31 30 30 30 30 29 29 30 30 29 29 30 30 31 32 34 34 35 38 40 39 37 36 38 40 40 40 38 38 39 42 42 41 39 38 37 36 36 38 40 40 40
54 52 50 47 45 45 45 45 45 46 47 48 49 50 51 51 50 50 50 50 50 51 51 52 52 52 51 51 50 49 46 42 39 36 34 33 32 32 33 33 33 33 33 32 31 31 30 30 30 29 29 28 28 28 29 29 30 32 33 34 36 38 40 40 39 36 36 39 40 39 38 37 39 42 42 41 39 38 39 38 37 38 39 40 40
57 56 55 53 50 49 49 48 48 48 49 50 52 53 54 54 54 54 55 55 54 54 54 54 55 54 53 52 51 48 44 40 38 35 32 31 32 32 32 33 32 32 33 32 31 31 31 30 30 29 28 27 27 27 28 28 29 31 32 33 36 39 40 42 43 39 37 39 40 39 38 37 37 39 41 41 39 39 39 38 37 37 38 39 40
57 58 58 56 54 52 51 51 51 50 51 52 54 56 57 57 57 57 57 58 57 56 56 57 57 57 55 53 50 46 42 39 37 35 33 33 33 33 33 33 33 33 33 32 31 30 30 30 30 29 28 27 26 26 27 27 27 29 30 31 33 37 39 42 44 44 41 40 40 40 39 40 39 38 40 42 41 40 39 37 36 37 36 36 38
58 59 58 56 55 53 52 52 52 53 54 56 57 57 58 57 57 58 59 60 60 59 59 58 57 55 54 52 49 45 42 40 38 38 37 36 36 36 36 36 36 35 34 33 32 31 31 30 30 30 29 27 26 25 26 27 27 28 29 30 32 34 36 39 42 47 46 43 41 41 41 41 42 41 41 43 43 41 40 38 36 35 35 35 36
Wind_Direction
292 292 292 293 294 293 293 293 293 292 292 292 292 291 291 291 292 292 292 293 294 294 295 296 297 297 297 297 298 299 299 297 297 297 298 300 299 299 300 301 301 301 301 303 304 305 305 305 305 305 305 305 305 305 305 306 306 305 304 303 303 305 306 306 306 308 308 306 304 302 300 298 296 293 290 289 287 282 275 269 267 266 261 260 264
291 291 291 292 292 292 292 293 292 292 292 292 292 291 291 291 291 292 292 293 294 294 295 296 296 297 296 297 297 299 298 296 295 296 298 299 299 298 300 301 301 301 302 303 304 304 304 304 305 304 304 304 303 303 304 305 304 303 302 301 302 304 305 305 305 306 306 305 302 300 298 296 293 289 287 286 283 276 269 264 262 262 259 258 261
291 291 290 290 291 291 291 292 292 292 292 292 292 292 292 291 291 292 292 293 294 294 295 295 295 296 296 296 297 297 296 295 296 297 299 299 298 298 300 302 302 301 302 303 303 303 304 304 304 304 303 303 302 302 303 303 302 301 300 300 302 303 303 303 304 305 304 302 300 298 296 292 289 287 285 283 278 270 263 259 258 259 258 258 259
290 290 290 290 290 290 290 291 291 292 292 292 292 292 292 291 292 292 292 293 293 294 295 295 295 295 295 296 296 295 294 295 297 298 299 299 298 299 300 301 301 301 302 303 302 302 303 303 304 303 302 302 302 302 302 301 299 298 299 300 301 302 302 303 304 304 302 300 298 296 293 289 287 285 284 280 273 265 259 256 255 256 257 257 258
289 289 289 289 289 289 290 290 291 292 292 292 292 292 292 292 292 292 292 293 293 294 294 295 294 295 296 297 295 294 293 295 298 299 299 299 299 300 300 301 300 301 302 302 301 302 302 303 304 302 302 302 302 300 300 299 297 298 299 301 301 301 301 302 302 301 299 298 296 293 289 287 285 284 281 276 269 263 258 254 252 253 255 257 258
288 288 288 288 288 289 290 290 290 291 291 291 291 292 292 292 292 293 293 293 293 294 294 294 294 295 296 297 295 293 295 296 298 299 299 299 300 300 300 300 300 301 301 301 300 301 302 303 302 301 301 302 300 299 298 297 297 298 300 300 300 300 300 301 300 298 296 295 292 289 286 284 283 281 278 273 268 263 258 253 250 251 254 256 256
287 287 286 287 288 288 289 289 290 291 291 291 291 292 292 292 292 293 293 293 294 294 294 294 294 295 296 297 294 293 296 298 298 299 299 300 300 300 300 300 300 300 300 299 300 301 301 301 300 300 301 301 299 298 298 298 298 300 300 299 299 298 299 299 298 295 294 291 288 285 283 282 281 278 275 272 267 263 259 252 249 248 252 254 254
286 286 286 286 287 288 288 290 290 291 291 291 292 292 292 292 293 293 293 293 293 294 294 293 294 295 295 296 293 292 295 297 299 299 299 299 299 299 299 299 299 299 298 298 300 301 300 299 299 300 300 300 300 299 298 298 299 299 298 298 297 297 297 297 295 293 290 287 284 281 280 280 278 276 274 272 268 263 259 252 247 246 249 252 253
285 285 285 286 287 288 288 289 290 290 291 291 292 292 292 292 293 293 293 293 293 293 293 293 294 294 295 294 293 292 293 296 298 298 298 298 298 298 297 297 296 296 296 298 300 300 299 299 299 300 301 302 302 301 299 298 298 297 297 297 296 295 295 294 292 290 286 282 279 277 277 277 276 276 274 272 269 264 258 252 245 245 247 249 253
285 285 285 286 286 287 287 288 289 290 290 291 292 292 292 292 293 293 293 294 294 294 294 293 293 294 294 294 293 293 293 294 296 297 296 296 296 295 294 294 294 294 295 298 298 298 299 299 299 301 303 303 304 301 297 296 295 295 295 295 294 293 292 291 290 286 281 277 275 274 274 274 274 275 275 272 269 264 258 251 243 244 245 247 251
285 285 285 285 286 286 286 287 288 289 290 290 291 291 292 293 294 294 294 294 294 293 293 293 293 294 294 293 293 293 293 293 294 295 294 294 293 292 292 292 291 292 295 296 296 297 298 298 300 303 303 303 303 299 294 293 293 294 294 293 292 291 290 290 286 280 276 273 272 272 272 271 272 274 275 273 269 264 257 250 242 243 244 244 249
285 284 285 285 285 286 286 287 288 289 289 290 290 291 292 293 294 295 295 294 294 293 293 293 294 293 292 292 292 292 292 292 292 292 291 291 290 290 290 290 291 293 294 294 295 296 296 298 301 303 303 303 301 296 294 293 292 293 293 292 290 289 290 288 280 274 272 271 271 272 270 271 274 276 275 273 268 263 257 249 242 242 242 241 245
285 285 285 285 286 286 286 286 286 287 288 289 290 291 292 294 295 295 295 295 294 294 294 293 293 292 291 290 290 290 290 290 290 289 289 288 288 288 288 289 291 292 292 292 294 294 294 298 301 302 302 301 298 295 295 294 293 291 291 290 288 289 289 283 273 270 269 269 271 272 271 272 275 276 274 272 268 263 257 249 242 241 242 240 242
286 287 287 286 285 284 284 285 286 287 288 289 290 291 293 294 295 296 296 295 294 294 293 292 292 290 290 289 288 288 288 288 287 287 287 287 288 288 289 290 290 290 291 292 293 292 294 298 300 301 301 299 297 295 297 296 293 291 289 288 287 288 284 275 269 268 268 268 271 272 272 274 276 275 272 270 266 262 256 249 243 241 242 239 239
286 288 288 287 285 284 284 285 286 288 288 289 290 292 294 295 295 295 295 295 294 294 293 292 292 290 288 287 286 285 284 284 284 285 286 287 288 288 290 290 288 289 291 290 291 291 294 297 299 300 298 297 296 295 296 293 291 290 288 286 286 284 276 267 268 269 267 268 271 272 274 279 281 278 272 268 264 260 255 249 244 241 241 237 236
285 287 287 286 284 284 285 286 287 288 289 289 291 293 294 295 295 295 294 294 294 294 294 294 291 289 287 285 284 283 283 284 285 286 287 288 288 289 290 287 286 288 288 288 289 291 295 298 299 298 296 294 294 294 294 290 289 289 285 283 282 277 268 266 270 270 268 268 268 270 277 283 285 281 273 266 262 258 254 249 244 242 241 236 233
284 285 285 284 284 285 286 288 288 289 289 290 292 294 295 295 294 294 294 295 296 296 295 292 288 286 285 284 285 286 288 289 289 289 289 289 289 289 287 285 286 286 286 287 288 292 296 299 299 297 294 292 292 292 290 287 287 285 281 279 277 270 265 268 271 268 265 263 264 272 279 283 284 281 275 267 261 258 254 248 244 242 241 237 232
283 284 284 283 283 284 287 289 289 289 290 291 292 294 294 294 292 292 295 296 296 293 290 287 286 286 285 287 289 291 293 294 292 291 291 290 288 286 283 283 284 284 286 288 290 293 295 295 297 298 295 291 289 289 286 284 287 283 279 277 272 268 268 271 270 266 262 258 264 276 280 282 286 283 276 269 262 258 255 250 245 242 240 237 232
283 283 283 283 283 285 286 288 288 289 290 291 292 292 292 292 292 294 296 295 290 287 286 287 288 288 284 285 289 290 290 290 289 288 287 285 284 284 282 282 283 286 289 291 294 294 294 293 295 299 298 292 286 284 283 284 287 284 277 274 271 270 271 272 268 264 259 256 266 277 278 282 287 285 278 271 264 258 255 252 248 244 240 237 232
285 285 285 285 285 286 286 287 288 289 290 291 291 289 289 291 293 294 292 288 284 285 289 290 289 287 283 281 283 283 282 282 282 280 280 279 283 285 283 284 286 289 291 292 295 294 295 294 295 299 301 294 284 281 282 283 286 281 274 273 274 274 273 270 267 266 260 256 266 274 276 280 287 287 279 272 268 260 254 252 248 245 242 239 234
286 287 287 287 287 287 287 288 289 290 291 290 288 287 288 291 292 289 284 282 283 287 291 291 288 286 283 279 279 278 278 279 277 276 276 278 285 283 281 284 285 288 290 293 295 296 296 293 293 298 300 293 281 279 281 281 281 276 273 275 277 276 272 269 268 267 261 258 263 271 275 281 286 287 280 272 269 263 255 251 248 246 242 240 237
287 289 289 288 288 288 290 290 291 291 291 290 290 291 290 289 287 283 282 282 284 286 289 290 287 286 284 280 278 275 276 278 276 275 275 280 284 281 279 282 284 289 292 295 296 296 295 291 291 296 298 289 277 278 280 276 276 275 276 277 277 274 269 268 268 266 264 261 263 270 276 281 285 285 280 272 268 265 256 250 247 245 243 239 237
288 290 289 289 290 290 291 291 291 291 290 292 294 293 288 284 281 280 282 283 284 285 287 287 285 286 287 286 284 279 275 276 276 276 278 282 282 278 276 281 287 292 293 295 295 295 293 289 290 295 296 286 275 277 276 271 273 276 277 277 273 270 268 268 268 267 268 268 268 271 275 280 284 283 280 271 266 265 257 251 248 244 242 239 237
286 284 281 283 287 288 289 288 287 285 286 291 293 288 283 281 279 279 281 282 283 284 286 287 288 288 291 293 291 285 279 276 276 278 281 283 279 273 273 281 289 291 291 293 293 292 291 289 291 294 292 282 274 274 271 268 271 276 276 272 268 267 267 267 268 268 271 274 272 270 271 278 284 282 278 271 264 263 258 252 248 244 241 238 237
283 280 278 279 283 284 284 282 279 277 279 281 278 275 277 280 279 279 282 282 280 281 284 288 289 289 293 298 297 291 286 283 281 282 283 281 275 268 272 282 287 290 292 292 290 289 288 288 290 291 287 278 272 271 269 267 269 274 273 267 263 264 266 269 270 271 275 279 276 268 268 278 282 280 276 269 263 261 259 255 249 244 241 237 236
284 283 283 285 285 281 275 274 275 276 277 273 267 268 273 276 276 278 280 279 277 279 284 287 287 288 292 296 297 295 292 289 288 285 281 277 271 268 275 283 287 289 291 290 287 285 286 287 286 287 282 274 269 269 270 268 268 271 269 262 261 263 266 271 274 275 277 280 279 269 268 277 279 278 275 267 262 258 257 257 252 246 240 236 234
285 286 288 288 283 275 272 276 280 281 280 276 272 271 272 271 270 273 274 273 275 280 284 284 285 289 291 291 292 294 293 291 290 285 279 277 272 272 279 283 285 287 287 285 284 284 284 285 283 281 275 268 268 269 269 267 267 268 264 259 259 262 266 272 276 278 279 280 280 271 268 277 276 276 275 267 264 261 256 256 253 247 241 236 233
285 285 285 281 274 272 275 281 285 287 285 281 278 274 272 269 269 270 269 269 274 279 281 283 286 289 290 288 286 287 289 289 287 282 278 276 274 277 280 282 284 285 284 283 282 282 282 282 280 275 268 265 267 269 268 266 268 267 262 258 259 261 265 270 275 280 280 279 280 272 269 279 277 273 274 268 267 266 260 257 253 246 240 236 233
286 286 280 273 272 274 278 282 284 284 282 281 279 274 271 268 266 267 267 270 276 280 283 284 286 287 288 287 284 283 285 286 284 281 278 276 277 279 281 284 285 284 283 281 280 280 280 279 275 270 265 264 266 268 268 268 269 264 259 258 260 263 265 269 276 282 281 278 277 273 273 282 280 272 272 270 270 269 264 259 252 245 239 235 232
289 288 282 276 275 278 280 283 282 278 277 277 277 273 266 263 265 267 269 273 278 283 285 285 285 285 285 285 284 282 283 283 282 281 280 280 281 282 284 284 284 283 281 279 278 277 276 274 270 267 264 264 266 268 269 269 268 260 255 257 261 264 265 270 279 284 281 276 276 275 277 283 282 273 271 271 272 271 268 260 250 242 238 235 233
276 274 277 280 279 278 279 281 279 275 273 272 271 268 266 268 271 273 274 277 280 282 283 283 283 283 283 283 282 281 280 280 280 280 280 281 282 282 282 281 280 280 279 277 276 274 271 268 266 265 263 263 264 266 267 267 264 256 253 256 259 263 268 274 283 284 278 274 275 275 277 282 282 276 273 272 272 272 269 260 248 241 237 234 233
225 237 255 271 276 276 278 278 272 269 269 268 267 267 269 272 274 275 276 277 279 280 280 281 281 281 282 281 281 280 279 279 279 279 279 280 280 279 279 277 277 276 276 275 272 268 265 263 264 263 261 262 262 263 264 262 258 254 254 256 260 267 272 278 283 281 275 274 277 276 277 281 281 279 275 272 272 272 268 257 246 240 236 234 233
210 217 220 240 267 276 279 277 268 263 264 266 267 269 272 274 275 277 278 279 281 282 282 282 282 282 282 282 282 282 282 282 282 281 280 279 279 279 278 276 274 273 274 274 269 263 260 259 260 261 260 261 261 262 261 258 254 252 255 259 264 270 274 280 282 277 274 275 278 277 276 279 279 278 275 271 271 270 264 254 243 236 233 231 231
210 212 208 212 248 270 273 272 267 264 263 266 270 273 277 279 281 283 283 284 285 285 285 284 283 284 284 284 285 285 285 285 284 283 282 281 281 280 278 276 274 272 272 272 267 261 258 258 258 259 259 260 263 263 258 257 255 254 258 262 266 272 276 280 278 272 271 272 274 274 274 278 278 274 270 267 269 268 260 250 240 233 228 226 226
215 216 211 207 219 246 257 262 264 266 266 266 270 275 279 283 284 284 284 285 286 286 285 285 284 284 283 283 284 285 286 287 287 286 285 285 283 282 280 278 274 270 268 268 267 264 262 261 260 259 259 261 265 263 256 256 257 258 261 265 269 272 273 273 270 266 267 268 269 269 271 277 278 271 265 264 266 265 257 247 239 233 229 226 224
216 219 217 216 216 224 241 256 261 262 265 266 269 275 281 285 284 281 282 284 285 283 282 281 279 278 279 281 284 287 288 290 290 291 291 289 286 284 282 282 276 270 266 266 268 270 270 268 265 263 263 264 265 259 253 255 258 260 264 266 266 265 264 265 265 264 266 267 267 268 271 275 275 268 262 263 265 263 255 246 238 232 230 229 226
214 221 223 226 228 230 243 259 261 260 266 271 273 278 283 281 277 276 279 280 277 274 273 273 274 278 282 286 290 293 294 295 295 297 296 293 289 283 270 266 273 273 268 266 269 273 273 272 271 269 267 266 263 256 252 253 256 259 263 264 262 262 262 262 263 263 265 266 266 270 272 274 272 266 262 263 263 260 252 244 239 231 229 229 227
212 221 226 228 233 239 249 258 259 262 270 274 276 279 278 272 269 270 271 269 267 266 267 269 275 283 289 294 298 300 300 301 301 301 300 296 292 285 266 253 262 271 271 271 273 274 272 270 269 269 268 265 259 254 251 252 254 259 263 262 263 264 261 260 261 263 266 266 267 270 271 272 271 265 263 264 262 257 249 243 238 233 230 229 228
212 219 226 230 235 242 250 255 257 263 269 272 274 274 269 264 265 265 263 262 262 263 265 271 277 285 291 297 301 303 303 304 303 303 301 299 295 287 275 261 258 264 270 274 275 274 271 266 262 262 264 263 258 254 252 252 255 259 262 260 261 262 260 259 260 262 265 266 267 267 267 270 270 265 263 264 262 254 247 243 237 232 230 227 225
214 219 225 232 240 247 252 255 258 262 266 268 268 266 262 261 261 259 259 260 261 262 264 270 277 284 289 293 297 301 302 302 302 301 299 298 294 286 276 265 260 263 268 270 270 270 269 264 259 256 257 258 257 256 255 255 256 260 261 258 256 258 259 259 259 260 263 266 268 266 266 269 268 264 262 264 261 252 245 242 237 231 227 224 223
219 224 228 234 242 249 253 255 257 259 260 260 259 257 257 257 256 257 258 260 261 263 265 269 276 283 286 289 291 295 299 300 300 299 296 294 292 288 280 272 267 267 268 266 263 263 263 261 258 256 255 255 256 256 258 260 261 262 262 258 255 256 257 258 259 260 262 266 267 265 267 266 264 262 261 263 260 250 243 239 236 231 226 223 223
224 228 233 236 241 246 251 253 253 253 253 252 252 254 255 256 256 257 258 260 263 265 268 272 278 284 287 287 287 290 295 297 297 296 294 292 290 288 285 281 278 276 273 269 265 261 259 259 259 259 259 259 258 259 260 262 263 264 261 256 255 257 258 258 260 260 261 264 264 264 265 263 260 260 259 260 258 249 242 238 235 231 229 227 226
225 229 233 237 239 243 247 249 250 249 249 250 253 256 258 258 259 259 260 262 264 267 271 276 282 287 290 290 290 292 295 297 297 295 294 293 291 291 290 288 288 286 283 279 274 268 263 261 261 262 262 261 261 261 261 261 261 261 258 254 253 257 260 260 259 260 261 263 263 263 263 260 258 257 256 256 255 248 242 237 234 231 231 232 230
226 230 233 237 240 244 249 252 254 255 255 256 256 257 260 261 261 261 263 265 266 269 273 278 284 288 291 294 296 297 298 298 297 295 293 293 293 294 294 294 295 294 291 286 281 277 272 267 265 264 263 261 260 260 259 259 257 254 254 252 250 253 258 259 258 259 261 262 261 259 257 256 256 256 255 253 251 247 242 238 237 235 233 234 234
228 231 235 238 242 245 249 253 256 258 260 262 261 261 263 264 264 265 267 268 270 273 276 280 284 288 292 295 297 298 299 299 297 294 292 292 293 294 294 295 296 296 294 290 285 281 277 274 271 268 266 264 263 261 260 258 255 252 254 253 251 251 254 256 257 257 257 257 257 255 252 253 254 255 256 254 249 244 241 240 240 239 237 236 238
233 235 236 239 242 245 248 250 252 254 256 259 262 264 265 266 267 268 270 272 274 276 278 281 284 287 291 294 295 296 297 296 295 292 291 290 290 291 292 294 296 296 296 294 291 287 282 279 276 273 271 269 267 266 264 260 254 251 252 253 251 249 248 251 254 254 253 253 253 253 251 250 251 253 254 253 248 242 239 240 240 239 238 237 239
236 239 239 240 243 246 249 251 253 255 257 259 261 263 265 266 267 269 271 273 275 276 278 281 283 286 289 292 293 294 293 292 290 289 289 289 288 287 288 291 294 295 296 296 294 291 287 283 280 277 275 273 270 268 266 262 257 252 250 247 245 244 241 241 245 250 252 252 252 252 251 248 247 249 250 247 244 242 238 238 240 239 237 237 239
239 242 244 243 244 247 251 254 257 260 262 263 265 267 269 270 271 271 272 273 274 276 278 280 282 285 287 289 290 290 290 288 286 286 287 288 289 287 286 288 290 292 295 296 295 293 290 288 285 281 278 277 275 272 268 264 261 257 254 248 243 243 240 235 236 244 250 253 254 252 251 249 245 246 246 242 241 243 241 239 239 240 239 237 238
243 245 247 247 248 251 254 258 261 265 268 270 272 274 275 276 276 276 275 274 274 276 278 280 281 284 286 287 287 287 286 284 283 284 285 287 289 289 288 287 285 287 291 293 294 293 291 289 287 284 281 278 276 275 272 268 264 261 259 253 247 244 242 237 235 239 246 251 254 253 252 253 249 246 244 240 240 244 245 241 238 239 240 239 238
246 247 249 251 252 254 258 263 266 269 273 276 278 279 279 280 280 280 278 277 276 277 278 279 281 283 284 284 283 282 281 281 281 282 283 284 286 288 290 290 286 285 287 288 290 291 289 287 285 282 280 277 274 273 272 270 267 264 261 258 253 249 247 243 238 239 243 248 252 253 252 254 254 250 246 241 240 243 245 242 239 239 240 241 239
248 248 250 252 255 258 262 266 271 274 278 279 280 280 281 281 281 281 280 279 279 278 278 279 280 281 282 282 280 278 278 279 281 282 282 282 283 284 286 288 286 284 284 283 284 285 285 282 280 279 277 276 274 273 272 271 268 266 263 260 258 254 252 250 245 242 243 245 249 252 252 253 254 253 248 243 241 242 242 240 238 238 239 241 241
Height
10878 10876 10873 10871 10871 10871 10870 10870 10869 10869 10869 10869 10868 10867 10866 10865 10864 10863 10863 10863 10862 10862 10861 10860 10858 10857 10856 10856 10855 10854 10852 10850 10848 10847 10845 10844 10842 10840 10839 10838 10837 10836 10834 10833 10833 10832 10831 10831 10831 10831 10830 10828 10827 10826 10825 10823 10820 10819 10817 10816 10814 10813 10812 10811 10810 10809 10806 10804 10801 10799 10797 10796 10794 10793 10792 10791 10791 10790 10790 10789 10789 10789 10789 10789 10790
10873 10872 10870 10867 10866 10866 10865 10864 10863 10863 10864 10864 10863 10862 10861 10860 10859 10858 10858 10858 10858 10857 10856 10855 10853 10852 10851 10850 10849 10848 10846 10845 10844 10843 10841 10839 10837 10836 10834 10833 10832 10831 10830 10828 10828 10827 10826 10826 10826 10826 10825 10823 10822 10822 10820 10818 10816 10814 10813 10811 10810 10808 10808 10807 10806 10805 10803 10800 10797 10795 10793 10792 10791 10790 10789 10788 10788 10787 10787 10787 10787 10787 10787 10787 10788
10868 10866 10865 10864 10863 10861 10860 10859 10858 10858 10859 10859 10858 10857 10856 10855 10854 10853 10853 10853 10853 10852 10851 10850 10848 10846 10845 10844 10843 10841 10840 10839 10839 10839 10837 10835 10833 10831 10829 10828 10827 10825 10824 10823 10823 10822 10821 10821 10822 10821 10820 10818 10817 10816 10815 10813 10811 10810 10808 10807 10805 10804 10804 10803 10802 10801 10799 10796 10794 10791 10790 10789 10788 10787 10786 10786 10785 10785 10785 10784 10785 10785 10785 10785 10786
10863 10861 10859 10858 10858 10857 10855 10854 10853 10853 10853 10852 10852 10851 10851 10850 10850 10849 10848 10848 10848 10847 10846 10844 10842 10841 10839 10838 10836 10835 10834 10833 10833 10833 10832 10831 10829 10826 10824 10823 10821 10820 10819 10818 10817 10817 10816 10816 10817 10816 10814 10813 10812 10811 10810 10809 10807 10805 10804 10803 10801 10800 10800 10799 10798 10796 10794 10792 10790 10788 10786 10785 10784 10784 10783 10783 10783 10783 10782 10782 10782 10783 10783 10783 10783
10858 10856 10854 10852 10852 10851 10850 10849 10848 10847 10847 10846 10846 10846 10845 10845 10845 10844 10844 10844 10843 10842 10840 10838 10836 10835 10833 10832 10830 10828 10828 10827 10827 10826 10826 10825 10824 10821 10819 10817 10815 10814 10813 10813 10811 10811 10811 10811 10811 10810 10809 10808 10806 10805 10805 10804 10802 10800 10799 10799 10797 10796 10796 10796 10794 10792 10790 10789 10787 10785 10783 10782 10781 10781 10781 10780 10780 10780 10780 10780 10780 10780 10781 10781 10781
10853 10852 10850 10847 10846 10845 10844 10844 10843 10842 10841 10840 10840 10840 10840 10840 10840 10839 10839 10839 10838 10837 10835 10832 10830 10829 10827 10826 10824 10823 10822 10821 10821 10820 10819 10819 10818 10816 10813 10811 10809 10808 10808 10807 10806 10805 10805 10806 10806 10804 10803 10802 10800 10799 10799 10798 10797 10796 10795 10794 10793 10793 10793 10792 10790 10788 10786 10785 10783 10782 10781 10779 10778 10778 10778 10778 10778 10778 10778 10778 10778 10778 10779 10779 10779
10848 10847 10845 10842 10841 10840 10839 10838 10836 10835 10834 10834 10834 10834 10833 10833 10833 10833 10833 10833 10833 10831 10829 10827 10824 10823 10822 10821 10819 10817 10816 10816 10815 10814 10813 10812 10812 10810 10808 10805 10803 10802 10801 10800 10800 10800 10800 10801 10800 10799 10798 10797 10795 10794 10794 10793 10792 10791 10790 10789 10789 10789 10789 10788 10786 10783 10782 10781 10780 10779 10778 10777 10776 10775 10775 10775 10775 10776 10776 10776 10776 10776 10776 10777 10777
10843 10842 10841 10838 10836 10835 10834 10832 10829 10828 10828 10827 10827 10827 10826 10826 10827 10827 10828 10827 10826 10825 10823 10821 10819 10818 10817 10816 10814 10812 10811 10810 10809 10808 10807 10806 10805 10804 10802 10800 10798 10796 10795 10794 10794 10794 10794 10795 10795 10794 10793 10792 10790 10789 10789 10788 10787 10786 10785 10785 10785 10785 10786 10785 10781 10779 10778 10777 10777 10776 10776 10775 10774 10773 10772 10772 10773 10773 10773 10773 10774 10774 10774 10775 10775
10837 10836 10835 10833 10831 10830 10829 10826 10823 10821 10820 10820 10821 10821 10820 10819 10820 10821 10822 10821 10820 10819 10817 10815 10813 10812 10811 10810 10809 10808 10806 10805 10804 10803 10801 10799 10798 10797 10796 10794 10792 10791 10790 10789 10789 10789 10789 10790 10789 10789 10788 10787 10786 10785 10784 10783 10782 10782 10781 10780 10780 10781 10783 10782 10778 10776 10775 10774 10774 10774 10773 10773 10771 10770 10770 10770 10770 10770 10771 10771 10771 10772 10772 10773 10773
10831 10830 10829 10827 10825 10824 10822 10819 10817 10815 10814 10814 10814 10814 10813 10813 10814 10815 10815 10815 10814 10812 10811 10809 10808 10806 10805 10804 10803 10802 10800 10799 10798 10797 10795 10793 10792 10791 10790 10789 10787 10785 10784 10783 10783 10783 10784 10785 10785 10784 10784 10783 10782 10780 10779 10778 10778 10777 10776 10775 10776 10777 10779 10778 10775 10772 10772 10771 10771 10771 10771 10770 10769 10768 10767 10767 10767 10768 10768 10768 10769 10769 10770 10770 10771
10825 10824 10823 10821 10819 10818 10816 10814 10811 10809 10808 10808 10807 10807 10807 10808 10809 10809 10809 10809 10808 10806 10804 10802 10801 10800 10798 10797 10795 10795 10794 10793 10791 10790 10789 10788 10787 10785 10783 10783 10782 10780 10779 10778 10777 10778 10779 10780 10781 10780 10779 10778 10778 10776 10774 10774 10774 10773 10772 10771 10772 10773 10775 10775 10772 10770 10768 10768 10768 10768 10768 10768 10767 10766 10765 10764 10764 10765 10765 10765 10766 10767 10768 10768 10769
10818 10817 10816 10814 10812 10810 10809 10808 10805 10803 10802 10802 10801 10800 10801 10802 10803 10804 10803 10802 10801 10799 10797 10795 10794 10792 10791 10790 10788 10787 10787 10786 10785 10784 10783 10782 10781 10779 10777 10777 10776 10775 10774 10772 10772 10772 10774 10776 10776 10776 10774 10773 10773 10771 10770 10770 10769 10768 10767 10768 10769 10770 10771 10771 10770 10767 10766 10765 10765 10765 10766 10765 10765 10763 10762 10762 10762 10762 10762 10763 10763 10764 10765 10766 10767
10810 10810 10810 10808 10805 10803 10802 10800 10798 10797 10796 10796 10794 10794 10795 10797 10798 10798 10797 10795 10793 10791 10789 10787 10786 10785 10784 10783 10781 10780 10780 10779 10778 10777 10776 10775 10775 10774 10772 10771 10771 10770 10768 10767 10767 10768 10770 10771 10771 10771 10770 10768 10768 10767 10766 10766 10765 10764 10763 10764 10765 10766 10767 10768 10768 10766 10764 10762 10762 10763 10763 10763 10762 10761 10760 10759 10759 10759 10760 10760 10761 10761 10763 10764 10764
10802 10803 10802 10800 10798 10795 10794 10793 10791 10791 10790 10789 10788 10788 10790 10791 10792 10791 10789 10787 10784 10783 10781 10780 10779 10778 10777 10776 10774 10773 10773 10772 10772 10771 10770 10769 10768 10768 10767 10766 10766 10765 10764 10762 10762 10763 10765 10766 10766 10767 10765 10764 10763 10763 10762 10762 10761 10759 10759 10760 10761 10762 10764 10765 10765 10764 10762 10760 10760 10760 10760 10760 10759 10758 10757 10757 10756 10757 10757 10758 10758 10759 10760 10761 10762
10796 10799 10797 10791 10789 10786 10785 10786 10785 10785 10783 10782 10782 10782 10784 10785 10785 10783 10781 10778 10777 10776 10775 10773 10772 10771 10770 10769 10767 10766 10766 10766 10766 10765 10764 10763 10762 10762 10762 10761 10761 10760 10759 10758 10757 10758 10759 10760 10761 10761 10761 10760 10759 10759 10759 10758 10757 10755 10754 10755 10757 10759 10760 10762 10762 10761 10760 10758 10757 10757 10757 10757 10756 10755 10754 10754 10754 10754 10755 10755 10756 10756 10757 10758 10760
10791 10796 10795 10787 10782 10779 10777 10779 10778 10777 10776 10774 10776 10777 10778 10778 10777 10774 10771 10770 10770 10770 10768 10767 10765 10764 10763 10762 10761 10760 10760 10760 10759 10759 10758 10757 10756 10756 10756 10756 10755 10754 10754 10754 10753 10753 10754 10755 10755 10756 10757 10756 10755 10755 10755 10754 10753 10751 10750 10750 10753 10755 10756 10758 10759 10758 10758 10756 10754 10754 10754 10754 10753 10753 10752 10751 10751 10751 10752 10753 10753 10754 10755 10756 10757
10786 10790 10792 10785 10777 10773 10770 10771 10771 10769 10768 10768 10770 10771 10771 10769 10767 10765 10764 10765 10765 10764 10762 10760 10758 10757 10757 10756 10755 10754 10755 10755 10754 10753 10752 10751 10751 10751 10751 10750 10749 10748 10748 10749 10749 10749 10749 10749 10750 10751 10753 10753 10752 10751 10751 10751 10749 10747 10745 10745 10748 10751 10752 10754 10755 10755 10755 10753 10752 10751 10751 10751 10750 10750 10749 10749 10748 10748 10748 10749 10750 10751 10752 10753 10754
10780 10784 10785 10780 10772 10768 10765 10763 10763 10761 10761 10762 10764 10765 10762 10759 10758 10758 10759 10760 10759 10756 10753 10752 10752 10752 10752 10751 10750 10750 10751 10750 10749 10747 10746 10745 10745 10746 10745 10745 10744 10743 10743 10744 10744 10745 10745 10745 10746 10747 10749 10749 10749 10748 10748 10747 10746 10744 10740 10740 10744 10747 10748 10750 10751 10752 10752 10751 10750 10748 10747 10747 10747 10746 10746 10746 10746 10745 10746 10746 10747 10748 10749 10750 10751
10771 10775 10777 10773 10767 10764 10760 10757 10755 10755 10756 10757 10759 10757 10754 10751 10752 10754 10754 10752 10749 10746 10746 10748 10749 10748 10746 10746 10746 10746 10746 10745 10744 10742 10740 10740 10740 10741 10741 10740 10739 10738 10738 10738 10738 10739 10740 10741 10741 10743 10744 10745 10745 10745 10744 10743 10742 10740 10736 10736 10740 10743 10744 10746 10747 10748 10749 10748 10747 10745 10744 10744 10744 10743 10743 10743 10743 10743 10743 10743 10744 10745 10746 10747 10748
10762 10763 10765 10763 10758 10756 10753 10749 10747 10748 10750 10752 10751 10748 10746 10746 10747 10750 10747 10742 10739 10739 10743 10746 10744 10741 10740 10741 10742 10741 10741 10741 10740 10737 10735 10735 10736 10736 10736 10736 10735 10733 10732 10731 10732 10733 10735 10736 10737 10738 10739 10740 10740 10741 10740 10739 10738 10736 10733 10733 10736 10739 10741 10742 10743 10744 10745 10746 10745 10743 10741 10741 10741 10741 10740 10739 10740 10740 10740 10740 10741 10742 10743 10744 10745
10754 10753 10753 10751 10748 10745 10743 10741 10740 10742 10743 10743 10742 10740 10741 10740 10741 10742 10738 10734 10734 10737 10740 10740 10737 10736 10735 10736 10738 10737 10738 10737 10734 10731 10730 10731 10731 10731 10731 10731 10730 10728 10726 10726 10727 10728 10729 10731 10732 10733 10734 10735 10736 10736 10736 10735 10735 10732 10729 10728 10731 10734 10736 10737 10739 10740 10741 10742 10742 10740 10738 10738 10738 10737 10736 10736 10736 10737 10737 10737 10738 10739 10740 10741 10742
10749 10746 10740 10736 10737 10736 10735 10735 10734 10736 10737 10736 10735 10734 10734 10732 10732 10731 10730 10729 10731 10734 10735 10733 10732 10731 10731 10732 10734 10734 10734 10731 10727 10726 10727 10726 10726 10725 10726 10726 10725 10723 10722 10721 10721 10722 10724 10726 10727 10728 10729 10730 10731 10731 10732 10732 10731 10728 10725 10724 10726 10730 10731 10733 10734 10736 10737 10738 10738 10737 10735 10734 10734 10733 10733 10732 10733 10733 10734 10734 10734 10735 10736 10737 10739
10748 10745 10731 10723 10728 10731 10731 10731 10730 10731 10733 10732 10729 10726 10724 10722 10724 10723 10723 10725 10726 10728 10728 10727 10727 10727 10727 10727 10729 10731 10731 10727 10723 10724 10723 10721 10721 10720 10720 10721 10720 10719 10718 10716 10716 10717 10719 10720 10721 10722 10724 10725 10726 10727 10727 10728 10727 10724 10721 10719 10721 10725 10727 10728 10729 10731 10733 10734 10735 10734 10732 10730 10730 10729 10729 10729 10729 10729 10730 10730 10731 10731 10732 10733 10735
10745 10742 10727 10719 10722 10726 10728 10727 10724 10726 10731 10735 10725 10714 10712 10714 10718 10718 10717 10719 10720 10722 10722 10721 10721 10721 10721 10721 10724 10727 10727 10725 10721 10721 10719 10716 10717 10716 10715 10715 10715 10714 10712 10712 10711 10712 10714 10715 10715 10715 10717 10720 10721 10722 10723 10724 10723 10720 10717 10716 10717 10720 10722 10723 10724 10726 10728 10730 10730 10730 10728 10727 10726 10725 10725 10725 10725 10725 10726 10727 10727 10728 10728 10729 10731
10736 10732 10724 10721 10722 10723 10724 10719 10714 10718 10729 10736 10721 10703 10705 10712 10713 10713 10713 10714 10714 10716 10717 10716 10714 10715 10715 10715 10718 10722 10723 10721 10718 10717 10714 10711 10711 10710 10710 10710 10709 10709 10707 10707 10706 10707 10708 10710 10710 10710 10711 10714 10716 10718 10719 10720 10719 10717 10714 10712 10712 10715 10716 10718 10719 10720 10722 10724 10725 10726 10725 10723 10721 10721 10720 10720 10721 10721 10722 10723 10723 10724 10724 10725 10727
10727 10723 10721 10722 10722 10718 10712 10705 10702 10711 10721 10722 10711 10702 10707 10712 10709 10709 10709 10709 10709 10710 10712 10711 10708 10708 10710 10710 10712 10715 10716 10714 10713 10712 10708 10705 10704 10704 10704 10704 10704 10703 10702 10701 10701 10702 10703 10704 10705 10705 10705 10707 10710 10712 10714 10715 10715 10713 10710 10708 10708 10710 10712 10712 10713 10715 10717 10719 10720 10721 10721 10720 10717 10716 10716 10716 10716 10717 10718 10718 10719 10720 10721 10721 10723
10723 10722 10722 10719 10714 10704 10694 10693 10697 10706 10709 10706 10704 10705 10707 10706 10704 10704 10704 10703 10704 10705 10706 10705 10702 10701 10704 10706 10708 10709 10709 10707 10706 10705 10703 10700 10699 10699 10699 10698 10697 10697 10697 10696 10695 10696 10696 10698 10699 10700 10700 10701 10703 10706 10708 10710 10710 10709 10706 10704 10705 10706 10707 10707 10708 10709 10711 10713 10715 10717 10717 10716 10714 10712 10711 10711 10712 10713 10713 10714 10715 10716 10717 10718 10719
10719 10720 10721 10709 10695 10686 10685 10691 10697 10699 10698 10697 10700 10701 10700 10699 10699 10699 10698 10699 10698 10699 10701 10701 10698 10696 10697 10700 10702 10704 10703 10700 10699 10699 10700 10698 10695 10694 10693 10692 10691 10691 10691 10690 10689 10689 10690 10692 10693 10694 10695 10695 10697 10699 10701 10704 10705 10705 10702 10700 10701 10702 10702 10702 10703 10705 10706 10708 10710 10711 10712 10711 10710 10708 10707 10707 10707 10708 10709 10709 10710 10711 10713 10714 10716
10716 10714 10709 10696 10683 10680 10685 10690 10694 10692 10689 10690 10693 10694 10694 10694 10693 10693 10694 10695 10694 10694 10695 10696 10695 10692 10692 10693 10694 10696 10696 10694 10693 10693 10694 10693 10690 10687 10686 10685 10685 10685 10685 10684 10684 10684 10684 10686 10687 10689 10689 10690 10691 10693 10695 10698 10700 10700 10698 10697 10696 10697 10698 10698 10699 10700 10701 10703 10704 10705 10706 10706 10706 10704 10703 10703 10703 10703 10704 10705 10705 10707 10709 10711 10712
10715 10708 10696 10688 10683 10682 10684 10687 10688 10684 10682 10684 10687 10689 10690 10690 10689 10689 10690 10690 10689 10689 10689 10690 10690 10688 10686 10686 10686 10688 10689 10688 10687 10686 10686 10685 10683 10680 10679 10679 10679 10678 10678 10678 10677 10678 10679 10680 10682 10683 10684 10685 10686 10687 10688 10691 10695 10695 10694 10693 10692 10692 10693 10694 10694 10695 10696 10697 10699 10700 10700 10701 10701 10700 10699 10699 10699 10699 10700 10700 10701 10702 10705 10707 10709
10716 10707 10691 10682 10682 10681 10681 10682 10682 10676 10673 10678 10681 10683 10684 10685 10685 10684 10684 10685 10685 10685 10685 10685 10684 10682 10681 10679 10679 10681 10682 10681 10680 10679 10677 10676 10675 10674 10673 10673 10672 10671 10671 10671 10671 10672 10673 10674 10676 10677 10678 10679 10681 10682 10683 10685 10688 10689 10690 10689 10688 10687 10687 10689 10689 10690 10691 10692 10693 10694 10695 10695 10696 10696 10695 10695 10695 10695 10695 10696 10696 10698 10701 10703 10705
10705 10699 10691 10684 10680 10678 10678 10678 10676 10670 10668 10671 10674 10677 10678 10679 10679 10678 10678 10678 10679 10680 10680 10679 10677 10676 10675 10674 10674 10674 10674 10673 10673 10672 10670 10669 10668 10668 10668 10667 10666 10665 10665 10665 10666 10666 10667 10669 10671 10672 10673 10674 10676 10677 10678 10680 10683 10684 10684 10685 10685 10683 10683 10684 10684 10685 10686 10687 10688 10689 10690 10691 10691 10691 10691 10691 10691 10691 10691 10692 10693 10694 10697 10699 10702
10687 10683 10683 10684 10683 10678 10673 10673 10671 10667 10666 10667 10669 10672 10673 10674 10673 10672 10671 10671 10673 10673 10673 10673 10671 10670 10669 10668 10667 10667 10667 10666 10666 10665 10664 10663 10662 10663 10663 10661 10660 10659 10659 10659 10660 10660 10661 10662 10665 10667 10668 10669 10670 10672 10674 10675 10678 10679 10679 10680 10680 10679 10678 10678 10678 10679 10681 10682 10683 10684 10684 10686 10687 10687 10687 10687 10687 10687 10687 10688 10689 10690 10692 10695 10698
10678 10677 10675 10676 10683 10679 10667 10664 10665 10664 10665 10665 10666 10667 10669 10669 10668 10666 10665 10666 10667 10666 10667 10667 10666 10665 10665 10663 10662 10662 10661 10660 10660 10659 10658 10656 10656 10657 10657 10656 10655 10654 10654 10654 10654 10654 10655 10656 10658 10661 10662 10663 10665 10667 10669 10671 10672 10673 10673 10674 10674 10673 10673 10673 10673 10674 10676 10677 10678 10679 10679 10680 10682 10683 10683 10683 10683 10683 10683 10683 10685 10686 10688 10690 10693
10672 10673 10670 10667 10670 10668 10660 10657 10659 10660 10662 10663 10663 10664 10664 10664 10663 10662 10661 10663 10663 10662 10662 10662 10661 10661 10661 10659 10659 10658 10658 10657 10656 10654 10654 10653 10652 10652 10651 10649 10648 10648 10648 10648 10648 10648 10649 10650 10652 10655 10656 10658 10659 10661 10663 10665 10666 10668 10668 10668 10668 10667 10667 10668 10669 10670 10672 10673 10674 10675 10675 10675 10678 10679 10678 10678 10678 10679 10679 10679 10680 10682 10683 10685 10687
10665 10665 10665 10662 10657 10653 10650 10651 10653 10654 10657 10659 10659 10660 10660 10660 10659 10658 10658 10659 10659 10659 10659 10659 10657 10657 10657 10656 10655 10655 10655 10654 10653 10651 10651 10650 10648 10648 10648 10645 10642 10642 10643 10642 10642 10642 10643 10644 10646 10648 10650 10652 10654 10655 10657 10659 10660 10662 10663 10663 10662 10662 10663 10664 10665 10666 10667 10668 10669 10670 10671 10672 10673 10674 10674 10674 10674 10675 10675 10675 10676 10678 10679 10681 10683
10657 10657 10658 10657 10653 10649 10646 10646 10647 10648 10650 10653 10655 10656 10657 10656 10656 10655 10655 10655 10656 10656 10656 10656 10654 10653 10652 10651 10651 10650 10650 10650 10650 10649 10648 10647 10645 10645 10647 10643 10638 10637 10637 10637 10637 10637 10637 10637 10639 10641 10643 10646 10648 10650 10652 10653 10655 10656 10658 10658 10657 10658 10659 10660 10660 10661 10662 10663 10664 10665 10667 10668 10670 10670 10670 10670 10670 10671 10671 10672 10673 10674 10676 10678 10680
10650 10649 10649 10649 10648 10646 10643 10642 10642 10643 10644 10647 10650 10652 10653 10653 10652 10652 10652 10652 10652 10653 10653 10652 10651 10649 10647 10646 10645 10644 10644 10645 10645 10646 10645 10644 10643 10641 10642 10639 10635 10634 10633 10633 10633 10633 10632 10632 10633 10635 10637 10640 10642 10645 10647 10648 10650 10651 10653 10653 10652 10653 10655 10655 10655 10656 10657 10658 10660 10661 10663 10664 10666 10666 10666 10666 10667 10667 10668 10668 10670 10671 10673 10676 10678
10643 10643 10643 10642 10641 10640 10639 10638 10638 10639 10640 10642 10645 10647 10649 10648 10647 10647 10647 10647 10647 10648 10649 10648 10647 10646 10644 10642 10641 10639 10638 10638 10639 10640 10640 10640 10640 10638 10636 10635 10634 10632 10630 10629 10629 10628 10628 10629 10629 10631 10633 10635 10637 10640 10642 10644 10645 10647 10648 10648 10648 10649 10650 10651 10652 10651 10650 10652 10656 10657 10659 10661 10662 10662 10662 10663 10664 10664 10665 10666 10667 10669 10671 10674 10676
10638 10638 10638 10637 10636 10635 10634 10634 10635 10635 10636 10638 10641 10643 10643 10643 10642 10642 10642 10642 10642 10643 10644 10644 10643 10642 10641 10640 10639 10636 10634 10633 10633 10634 10635 10635 10636 10636 10635 10632 10631 10628 10626 10626 10625 10625 10624 10624 10625 10626 10628 10630 10633 10635 10637 10639 10640 10642 10644 10644 10644 10645 10645 10646 10647 10646 10645 10647 10652 10654 10655 10657 10658 10659 10659 10659 10661 10661 10662 10663 10664 10666 10669 10671 10673
10634 10634 10634 10633 10632 10631 10630 10630 10631 10631 10633 10635 10637 10638 10638 10637 10638 10638 10638 10637 10637 10637 10638 10639 10639 10639 10638 10637 10637 10635 10632 10630 10629 10630 10631 10631 10631 10633 10632 10630 10628 10625 10623 10623 10622 10622 10621 10620 10620 10621 10623 10625 10627 10629 10631 10633 10635 10637 10638 10639 10639 10639 10640 10641 10642 10643 10643 10645 10647 10650 10652 10653 10654 10655 10655 10656 10658 10659 10659 10660 10662 10664 10666 10668 10670
10629 10630 10630 10630 10630 10628 10627 10626 10627 10627 10629 10631 10632 10633 10633 10633 10634 10635 10634 10634 10633 10632 10632 10633 10633 10634 10634 10633 10633 10632 10631 10628 10627 10626 10627 10627 10627 10627 10626 10625 10623 10621 10619 10618 10617 10616 10616 10615 10615 10616 10617 10619 10620 10622 10625 10627 10629 10631 10632 10633 10634 10633 10634 10636 10638 10639 10640 10641 10643 10645 10648 10649 10650 10651 10652 10653 10654 10655 10656 10658 10660 10661 10662 10662 10665
10625 10626 10627 10627 10627 10626 10625 10624 10623 10623 10625 10626 10626 10626 10627 10628 10630 10631 10631 10631 10631 10630 10628 10628 10628 10628 10627 10627 10627 10627 10626 10625 10623 10622 10621 10621 10621 10621 10620 10619 10617 10615 10614 10612 10611 10610 10611 10611 10611 10611 10612 10613 10614 10615 10618 10620 10623 10626 10625 10626 10629 10628 10628 10630 10632 10634 10635 10637 10639 10641 10643 10645 10646 10647 10648 10650 10651 10652 10653 10654 10655 10655 10656 10657 10659
10621 10622 10623 10623 10623 10623 10622 10621 10619 10619 10619 10619 10619 10619 10621 10623 10624 10626 10626 10627 10627 10627 10626 10625 10624 10623 10622 10620 10620 10619 10619 10619 10618 10617 10616 10616 10615 10615 10615 10613 10612 10611 10609 10608 10607 10607 10606 10606 10606 10606 10607 10608 10609 10610 10612 10615 10618 10620 10619 10620 10623 10623 10623 10624 10626 10628 10630 10633 10635 10637 10639 10640 10641 10642 10644 10646 10648 10648 10650 10650 10650 10651 10652 10653 10655
10615 10616 10617 10617 10617 10618 10617 10616 10615 10614 10614 10612 10612 10613 10614 10616 10618 10620 10621 10621 10621 10621 10621 10621 10620 10620 10618 10617 10615 10614 10613 10613 10613 10612 10612 10611 10611 10610 10610 10609 10608 10607 10606 10605 10604 10604 10603 10603 10603 10602 10602 10603 10604 10605 10607 10610 10613 10614 10615 10614 10616 10619 10619 10619 10621 10623 10625 10628 10630 10633 10635 10636 10637 10638 10640 10642 10644 10645 10646 10646 10646 10647 10648 10650 10652
10608 10609 10611 10612 10612 10612 10611 10610 10609 10609 10608 10607 10607 10608 10609 10611 10613 10614 10615 10615 10615 10615 10616 10616 10616 10616 10615 10614 10613 10611 10610 10609 10609 10609 10608 10608 10607 10607 10606 10605 10605 10604 10603 10602 10601 10600 10599 10599 10598 10598 10598 10599 10600 10600 10602 10605 10607 10610 10610 10608 10610 10613 10615 10615 10616 10618 10620 10623 10625 10627 10630 10633 10634 10635 10636 10638 10640 10642 10642 10642 10642 10643 10644 10646 10647
10602 10603 10605 10606 10606 10606 10606 10605 10604 10604 10603 10603 10604 10604 10604 10606 10608 10609 10610 10610 10610 10610 10610 10610 10611 10611 10611 10611 10610 10609 10609 10607 10607 10607 10606 10606 10605 10605 10604 10603 10602 10601 10600 10599 10598 10597 10596 10595 10595 10595 10594 10595 10596 10597 10598 10600 10602 10603 10603 10604 10605 10608 10610 10612 10612 10613 10615 10618 10621 10623 10626 10628 10630 10630 10632 10634 10636 10637 10637 10637 10638 10638 10639 10640 10642
10597 10598 10599 10601 10602 10602 10601 10601 10601 10601 10600 10600 10600 10600 10600 10601 10603 10604 10605 10605 10605 10605 10605 10605 10605 10605 10606 10606 10607 10607 10607 10606 10605 10605 10605 10604 10603 10603 10602 10601 10600 10599 10598 10596 10595 10594 10593 10592 10591 10591 10591 10592 10593 10593 10594 10596 10597 10597 10598 10600 10602 10603 10605 10608 10610 10610 10611 10613 10616 10618 10621 10624 10625 10627 10629 10631 10631 10631 10631 10632 10633 10634 10635 10637 10639
10592 10592 10593 10596 10598 10599 10599 10599 10599 10599 10598 10598 10597 10596 10595 10596 10597 10598 10598 10599 10599 10600 10599 10599 10599 10600 10601 10602 10603 10604 10604 10603 10602 10602 10602 10601 10601 10600 10599 10599 10598 10597 10596 10595 10593 10592 10591 10590 10589 10589 10589 10589 10590 10590 10591 10592 10593 10593 10594 10596 10598 10599 10601 10604 10606 10608 10609 10608 10610 10614 10617 10620 10622 10623 10625 10627 10627 10627 10627 10628 10630 10631 10632 10634 10636
10587 10587 10589 10592 10595 10597 10598 10598 10598 10599 10598 10597 10594 10592 10591 10591 10591 10591 10590 10590 10593 10595 10594 10593 10593 10594 10595 10597 10599 10599 10600 10599 10599 10598 10598 10598 10597 10597 10596 10596 10595 10595 10594 10593 10592 10591 10590 10589 10588 10587 10587 10587 10588 10588 10588 10589 10590 10590 10591 10592 10594 10595 10597 10600 10602 10605 10606 10606 10606 10609 10612 10615 10618 10619 10621 10622 10623 10623 10624 10626 10627 10628 10629 10630 10632
10582 10583 10586 10590 10593 10597 10599 10599 10599 10599 10598 10595 10592 10588 10586 10586 10586 10584 10583 10582 10585 10588 10588 10587 10587 10588 10589 10591 10593 10594 10594 10594 10594 10594 10593 10594 10594 10593 10593 10592 10592 10591 10591 10591 10590 10589 10588 10587 10586 10586 10585 10585 10585 10586 10586 10586 10587 10587 10588 10589 10590 10592 10593 10595 10597 10599 10602 10603 10604 10605 10607 10610 10613 10614 10616 10617 10618 10620 10622 10623 10623 10624 10626 10627 10629